Location: Aalen
(48.8330°N, 10.1000°E)
Time: 23:21:33
(UTC+02:00)

NOAA 15 - Visible Passes

Search period start: 19 September 2021 00:00
Search period end: 29 September 2021 00:00
Orbit: 797 x 812 km, 98.7° (Epoch: 19 September)

Date Brightness Start Highest point End Pass type
(mag) Time Alt. Az. Time Alt. Az. Time Alt. Az.
19 Sep 4.6 19:49:20 10° SSE 19:54:33 74° ENE 19:59:50 10° NNW visible
19 Sep 7.3 21:31:28 10° SW 21:34:55 18° W 21:38:24 10° NW visible
20 Sep 6.6 21:04:58 10° SSW 21:09:26 28° W 21:13:56 10° NW visible
21 Sep 5.8 20:39:03 10° S 20:44:02 44° W 20:49:06 10° NNW visible
22 Sep 4.9 20:13:32 10° S 20:18:45 72° WSW 20:24:03 10° NNW visible
22 Sep 7.6 21:58:20 10° W 21:59:29 11° W 22:00:39 10° WNW visible
23 Sep 4.6 19:48:21 10° SSE 19:53:34 73° ENE 19:58:50 10° NNW visible
23 Sep 7.2 21:30:23 10° SW 21:33:54 18° W 21:37:27 10° NW visible
24 Sep 6.6 21:03:55 10° SSW 21:08:25 29° W 21:12:58 10° NW visible
25 Sep 5.7 20:38:01 10° S 20:43:03 45° W 20:48:07 10° NNW visible
26 Sep 4.9 20:12:31 10° S 20:17:45 73° WSW 20:23:03 10° NNW visible
26 Sep 7.6 21:57:05 10° W 21:58:28 11° W 21:59:51 10° WNW visible
27 Sep 4.6 19:47:20 10° SSE 19:52:33 72° ENE 19:57:50 10° N visible
27 Sep 7.2 21:29:18 10° SW 21:32:53 18° W 21:36:30 10° NW visible
28 Sep 6.5 21:02:52 10° SSW 21:07:24 29° W 21:11:59 10° NW visible
